EW3012 Weather Reports


time (UTC)temp
C
wind
direction
speed
KPH
gust
KPH
rain 1hr
cm
rain 24hr
cm
rain mn
cm
humidity
%
barometer
mb
20260507152754 21 164 3.2 9.7 0.00 0.00 0.00 53 1014.7
20260507152253 22 86 0.0 6.4 0.00 0.00 0.00 53 1014.5
20260507151754 22 113 0.0 9.7 0.00 0.00 0.00 53 1014.5
20260507151253 22 114 3.2 9.7 0.00 0.00 0.00 53 1014.7
20260507151222 22 134 0.0 3.2 0.00 0.00 0.00 53 1014.7
20260507150255 22 113 0.0 4.8 0.00 0.00 0.00 54 1014.7
20260507145753 22 179 1.6 8.0 0.00 0.00 0.00 52 1014.7
20260507145253 22 131 0.0 8.0 0.00 0.00 0.00 53 1014.5
20260507144753 22 138 0.0 6.4 0.00 0.00 0.00 52 1014.7
20260507144254 22 149 0.0 4.8 0.00 0.00 0.00 53 1014.7
20260507143753 23 59 0.0 3.2 0.00 0.00 0.00 52 1014.7
20260507143255 23 117 0.0 6.4 0.00 0.00 0.00 52 1014.8
20260507142752 23 149 0.0 6.4 0.00 0.00 0.00 53 1014.8
20260507142254 22 151 0.0 11.3 0.00 0.00 0.00 51 1014.8
20260507141752 22 157 3.2 11.3 0.00 0.00 0.00 52 1014.9
20260507141713 22 142 0.0 16.1 0.00 0.00 0.00 52 1014.8
20260507140753 23 34 3.2 16.1 0.00 0.00 0.00 51 1014.8
20260507140251 23 185 0.0 1.6 0.00 0.00 0.00 50 1014.8
20260507135749 23 199 0.0 11.3 0.00 0.00 0.00 52 1014.8
20260507135250 23 235 4.8 11.3 0.00 0.00 0.00 51 1014.8
20260507134748 23 137 1.6 14.5 0.00 0.00 0.00 50 1014.8
20260507134249 23 128 0.0 14.5 0.00 0.00 0.00 52 1014.9
20260507133749 23 130 1.6 8.0 0.00 0.00 0.00 51 1014.9
20260507133248 23 93 0.0 8.0 0.00 0.00 0.00 51 1015.0
20260507132749 23 141 1.6 8.0 0.00 0.00 0.00 51 1014.8
20260507132245 23 78 0.0 11.3 0.00 0.00 0.00 48 1014.9
20260507131746 23 245 0.0 11.3 0.00 0.00 0.00 50 1014.9
20260507131245 23 97 0.0 11.3 0.00 0.00 0.00 50 1015.0
20260507130744 23 233 1.6 11.3 0.00 0.00 0.00 48 1015.1
20260507130242 23 151 0.0 16.1 0.00 0.00 0.00 50 1015.0
20260507125747 23 155 0.0 16.1 0.00 0.00 0.00 48 1015.1
20260507125241 23 149 0.0 8.0 0.00 0.00 0.00 48 1015.1
20260507124741 23 78 1.6 11.3 0.00 0.00 0.00 50 1015.1
20260507124240 23 114 1.6 11.3 0.00 0.00 0.00 51 1015.2
20260507123741 23 134 3.2 11.3 0.00 0.00 0.00 50 1015.1
20260507123238 23 182 3.2 11.3 0.00 0.00 0.00 50 1015.2
20260507122739 23 147 0.0 16.1 0.00 0.00 0.00 50 1015.2
20260507122237 23 176 4.8 16.1 0.00 0.00 0.00 49 1015.3
20260507121738 23 221 0.0 8.0 0.00 0.00 0.00 49 1015.4
20260507121239 23 151 0.0 14.5 0.00 0.00 0.00 50 1015.4
20260507120738 23 109 1.6 14.5 0.00 0.00 0.00 50 1015.4
20260507120723 23 180 1.6 14.5 0.00 0.00 0.00 51 1015.4
20260507115736 22 96 3.2 14.5 0.00 0.00 0.00 50 1015.4
20260507115702 22 137 0.0 16.1 0.00 0.00 0.00 53 1015.5
20260507114733 22 161 3.2 16.1 0.00 0.00 0.00 51 1015.5
20260507114233 22 114 1.6 11.3 0.00 0.00 0.00 51 1015.5
20260507113733 22 145 1.6 8.0 0.00 0.00 0.00 50 1015.6
20260507113231 23 118 3.2 14.5 0.00 0.00 0.00 49 1015.5
20260507112733 22 159 0.0 14.5 0.00 0.00 0.00 50 1015.5
20260507112232 23 59 1.6 11.3 0.00 0.00 0.00 50 1015.4
20260507111733 22 233 0.0 11.3 0.00 0.00 0.00 49 1015.4
20260507111232 22 94 0.0 9.7 0.00 0.00 0.00 48 1015.4
20260507110732 23 141 1.6 9.7 0.00 0.00 0.00 48 1015.5
20260507110232 22 144 0.0 9.7 0.00 0.00 0.00 48 1015.5
20260507105733 22 131 1.6 14.5 0.00 0.00 0.00 50 1015.5
20260507105232 22 182 3.2 14.5 0.00 0.00 0.00 49 1015.4
20260507104734 22 87 0.0 14.5 0.00 0.00 0.00 50 1015.5
20260507104232 22 172 1.6 17.7 0.00 0.00 0.00 50 1015.6
20260507103731 22 125 3.2 17.7 0.00 0.00 0.00 49 1015.6
20260507103653 22 117 0.0 16.1 0.00 0.00 0.00 52 1015.6
20260507102731 22 138 3.2 16.1 0.00 0.00 0.00 49 1015.7
20260507102650 22 127 1.6 16.1 0.00 0.00 0.00 48 1015.6
20260507102117 22 141 3.2 16.1 0.00 0.00 0.00 49 1015.7
20260507102110 21 138 1.6 16.1 0.00 0.00 0.00 51 1015.7
20260507101910 22 128 1.6 16.1 0.00 0.00 0.00 50 1015.7
20260507100229 21 140 4.8 17.7 0.00 0.00 0.00 48 1015.8
20260507095731 21 121 9.7 17.7 0.00 0.00 0.00 50 1015.8
20260507095230 21 137 6.4 17.7 0.00 0.00 0.00 47 1015.8
20260507094726 21 59 3.2 16.1 0.00 0.00 0.00 49 1015.8
20260507094223 22 49 1.6 16.1 0.00 0.00 0.00 48 1015.8
20260507094158 22 142 4.8 16.1 0.00 0.00 0.00 50 1015.8
20260507093225 21 138 6.4 16.1 0.00 0.00 0.00 48 1015.9
20260507092726 22 107 1.6 17.7 0.00 0.00 0.00 47 1015.9
20260507092227 22 109 6.4 17.7 0.00 0.00 0.00 47 1015.9
20260507092153 22 102 3.2 16.1 0.00 0.00 0.00 50 1015.9
20260507091225 22 141 0.0 9.7 0.00 0.00 0.00 49 1015.9
20260507090723 22 124 0.0 9.7 0.00 0.00 0.00 46 1015.7
20260507090220 22 265 1.6 8.0 0.00 0.00 0.00 46 1015.9
20260507085721 21 121 1.6 9.7 0.00 0.00 0.00 47 1015.8
20260507085219 22 114 1.6 9.7 0.00 0.00 0.00 44 1015.8
20260507084718 22 128 3.2 9.7 0.00 0.00 0.00 46 1015.9
20260507084220 22 172 1.6 14.5 0.00 0.00 0.00 49 1015.9
20260507083720 22 133 4.8 14.5 0.00 0.00 0.00 48 1015.9
20260507083216 22 145 4.8 11.3 0.00 0.00 0.00 44 1015.9
20260507083136 22 155 1.6 9.7 0.00 0.00 0.00 47 1015.9
20260507082217 22 140 3.2 9.7 0.00 0.00 0.00 45 1015.8
20260507081714 22 135 0.0 0.0 0.00 0.00 0.00 45 1015.9
20260507081637 21 130 0.0 1.6 0.00 0.00 0.00 48 1015.8
20260507080713 21 124 0.0 4.8 0.00 0.00 0.00 46 1015.7
20260507080214 20 155 0.0 9.7 0.00 0.00 0.00 47 1015.8
20260507075713 20 68 6.4 9.7 0.00 0.00 0.00 46 1015.6
20260507075639 20 137 3.2 8.0 0.00 0.00 0.00 48 1015.7
20260507074711 20 92 3.2 8.0 0.00 0.00 0.00 46 1015.8
20260507074214 20 157 0.0 0.0 0.00 0.00 0.00 48 1015.9
20260507073710 20 123 0.0 0.0 0.00 0.00 0.00 46 1015.9
20260507073633 20 63 0.0 0.0 0.00 0.00 0.00 43 1015.9
20260507073147 21 131 0.0 0.0 0.00 0.00 0.00 43 1015.9
20260507072212 20 182 0.0 0.0 0.00 0.00 0.00 43 1015.9
20260507071707 21 209 0.0 0.0 0.00 0.00 0.00 44 1015.9
20260507071205 21 82 0.0 0.0 0.00 0.00 0.00 43 1015.8
20260507071102 20 151 0.0 0.0 0.00 0.00 0.00 47 1015.9
20260507070856 21 228 0.0 0.0 0.00 0.00 0.00 44 1015.8
20260507065704 20 255 0.0 0.0 0.00 0.00 0.00 55 1015.9
20260507065204 19 106 0.0 0.0 0.00 0.00 0.00 58 1015.9
20260507064702 19 158 0.0 0.0 0.00 0.00 0.00 55 1015.9
20260507064623 19 144 0.0 0.0 0.00 0.00 0.00 59 1015.8
20260507063703 19 145 0.0 0.0 0.00 0.00 0.00 62 1015.9
20260507063204 19 78 0.0 0.0 0.00 0.00 0.00 66 1015.8
20260507062703 19 336 0.0 0.0 0.00 0.00 0.00 68 1015.9
20260507062203 19 279 0.0 0.0 0.00 0.00 0.00 68 1015.8
20260507061702 18 261 0.0 0.0 0.00 0.00 0.00 72 1015.8
20260507061633 18 264 0.0 0.0 0.00 0.00 0.00 72 1015.8
20260507060703 17 264 0.0 0.0 0.00 0.00 0.00 74 1015.9
20260507060202 16 264 0.0 0.0 0.00 0.00 0.00 77 1016.0
20260507055704 16 264 0.0 0.0 0.00 0.00 0.00 78 1016.0
20260507055201 15 264 0.0 0.0 0.00 0.00 0.00 77 1016.0
20260507054703 16 264 0.0 0.0 0.00 0.00 0.00 79 1015.9
20260507054202 15 261 0.0 0.0 0.00 0.00 0.00 80 1016.0
20260507054132 15 262 0.0 0.0 0.00 0.00 0.00 81 1015.9
20260507053201 14 261 0.0 0.0 0.00 0.00 0.00 83 1015.9
20260507052700 13 262 0.0 0.0 0.00 0.00 0.00 85 1015.9
20260507052201 13 274 0.0 0.0 0.00 0.00 0.00 87 1016.0
20260507051700 12 275 0.0 0.0 0.00 0.00 0.00 87 1016.0
20260507051204 11 275 0.0 0.0 0.00 0.00 0.00 88 1016.0
20260507051126 10 274 0.0 0.0 0.00 0.00 0.00 87 1016.0
20260507050200 10 268 0.0 0.0 0.00 0.00 0.00 87 1016.1
20260507045701 10 268 0.0 0.0 0.00 0.00 0.00 86 1016.1
20260507045158 9 266 0.0 0.0 0.00 0.00 0.00 86 1016.1
20260507044657 8 268 0.0 0.0 0.00 0.00 0.00 85 1016.2
20260507044616 8 266 0.0 0.0 0.00 0.00 0.00 85 1016.2
20260507043656 8 266 0.0 0.0 0.00 0.00 0.00 84 1016.2
20260507043154 7 269 0.0 0.0 0.00 0.00 0.00 84 1016.2
20260507043125 7 274 0.0 0.0 0.00 0.00 0.00 84 1016.2
20260507042155 7 252 0.0 0.0 0.00 0.00 0.00 84 1016.1
20260507041653 7 252 0.0 0.0 0.00 0.00 0.00 83 1016.1
20260507041151 7 283 0.0 4.8 0.00 0.00 0.00 83 1016.0
20260507041007 6 282 0.0 1.6 0.00 0.00 0.00 83 1016.1
20260507040821 7 282 0.0 6.4 0.00 0.00 0.00 83 1016.1
20260507040334 6 266 1.6 6.4 0.00 0.00 0.00 83 1016.1
20260507035144 6 283 0.0 3.2 0.00 0.00 0.00 83 1016.0
20260507034643 6 252 0.0 8.0 0.00 0.03 0.00 83 1016.1
20260507034143 6 271 1.6 8.0 0.00 0.03 0.00 82 1016.0
20260507033643 6 221 0.0 4.8 0.00 0.03 0.00 82 1016.0
20260507033141 6 293 1.6 4.8 0.00 0.03 0.00 83 1016.1
20260507032641 6 243 0.0 9.7 0.00 0.03 0.00 83 1016.1
20260507032139 6 250 3.2 9.7 0.00 0.03 0.00 82 1015.9
20260507031641 6 276 3.2 8.0 0.00 0.03 0.00 82 1016.0
20260507031151 6 261 3.2 6.4 0.00 0.03 0.00 82 1015.9
20260507030639 6 238 0.0 4.8 0.00 0.03 0.00 83 1016.0
20260507030139 6 252 3.2 9.7 0.00 0.03 0.00 82 1015.9
20260507025640 6 257 4.8 9.7 0.00 0.03 0.00 82 1015.9
20260507025139 5 226 3.2 8.0 0.00 0.03 0.00 83 1016.0
20260507024637 5 321 0.0 3.2 0.00 0.03 0.00 83 1015.9
20260507024610 5 259 0.0 4.8 0.00 0.03 0.00 83 1015.9
20260507023652 5 259 0.0 6.4 0.00 0.03 0.00 82 1015.9
20260507023138 5 262 1.6 6.4 0.00 0.03 0.00 83 1016.0
20260507022639 5 258 0.0 0.0 0.00 0.03 0.00 83 1015.9
20260507022151 5 78 0.0 0.0 0.00 0.03 0.00 84 1016.0
20260507022006 5 78 0.0 0.0 0.00 0.03 0.00 84 1016.0
20260507021813 5 78 0.0 0.0 0.00 0.03 0.00 84 1015.9
20260507021329 5 78 0.0 0.0 0.00 0.03 0.00 84 1016.0
20260507020602 5 78 0.0 0.0 0.00 0.03 0.00 84 1016.0
20260507015637 5 78 0.0 0.0 0.00 0.03 0.00 84 1016.1
20260507015137 6 227 0.0 6.4 0.00 0.03 0.00 84 1016.1
20260507014652 6 226 0.0 6.4 0.00 0.03 0.00 83 1016.1
20260507014137 6 276 0.0 6.4 0.00 0.03 0.00 84 1016.2
20260507014100 6 241 1.6 8.0 0.00 0.03 0.00 83 1016.1
20260507013135 6 269 0.0 8.0 0.00 0.03 0.00 82 1016.2
20260507012636 6 272 0.0 6.4 0.00 0.03 0.00 83 1016.2
20260507012221 6 247 0.0 8.0 0.00 0.03 0.00 82 1016.2
20260507012155 6 251 1.6 6.4 0.00 0.03 0.00 83 1016.2
20260507011704 6 227 1.6 4.8 0.00 0.03 0.00 83 1016.2
20260507011138 6 247 0.0 6.4 0.00 0.03 0.00 83 1016.2
20260507010831 6 281 1.6 6.4 0.00 0.03 0.00 82 1016.2
20260507005636 6 268 1.6 8.0 0.00 0.03 0.00 82 1016.1
20260507005136 6 269 1.6 6.4 0.00 0.03 0.00 82 1016.1
20260507004635 5 266 0.0 0.0 0.00 0.03 0.00 84 1016.0
20260507004136 6 265 0.0 0.0 0.00 0.03 0.00 83 1016.0
20260507003634 6 266 0.0 0.0 0.00 0.03 0.00 84 1015.9
20260507003135 6 266 0.0 0.0 0.00 0.03 0.00 84 1016.0
20260507002636 6 266 0.0 0.0 0.00 0.03 0.00 84 1016.0
20260507002133 6 71 0.0 0.0 0.00 0.03 0.00 84 1016.0
20260507002056 6 71 0.0 0.0 0.00 0.03 0.00 84 1016.0
20260507001136 6 71 0.0 0.0 0.00 0.03 0.00 85 1016.0
20260507000632 6 71 0.0 0.0 0.00 0.03 0.00 85 1016.0
20260507000137 6 71 0.0 0.0 0.00 0.03 0.00 85 1016.1
20260506235633 6 71 0.0 0.0 0.00 0.03 0.00 85 1016.1
20260506235136 6 71 0.0 0.0 0.00 0.03 0.00 85 1016.1
20260506234632 6 71 0.0 0.0 0.00 0.03 0.00 85 1016.2
20260506234135 6 71 0.0 0.0 0.00 0.03 0.00 85 1016.2
20260506233632 7 71 0.0 0.0 0.00 0.03 0.00 85 1016.2
20260506233134 7 71 0.0 0.0 0.00 0.03 0.00 85 1016.2
20260506232632 7 71 0.0 0.0 0.00 0.03 0.00 84 1016.3
20260506232134 7 259 0.0 0.0 0.00 0.03 0.00 83 1016.2
20260506232039 7 285 0.0 0.0 0.00 0.03 0.00 84 1016.2
20260506231827 7 252 0.0 0.0 0.00 0.03 0.00 83 1016.3
20260506230632 7 283 0.0 0.0 0.00 0.03 0.00 85 1016.2
20260506230131 7 283 0.0 0.0 0.00 0.03 0.00 85 1016.3
20260506230048 7 283 0.0 0.0 0.00 0.03 0.00 85 1016.3
20260506225132 7 283 0.0 0.0 0.00 0.03 0.00 84 1016.4
20260506224630 7 283 0.0 0.0 0.00 0.03 0.00 84 1016.4
20260506224131 7 185 0.0 0.0 0.00 0.03 0.00 84 1016.4
20260506223630 7 281 0.0 0.0 0.00 0.03 0.00 85 1016.3
20260506223130 7 251 0.0 0.0 0.00 0.03 0.00 85 1016.3
20260506222630 7 251 0.0 0.0 0.00 0.03 0.00 85 1016.3
20260506222555 7 251 0.0 0.0 0.00 0.03 0.00 86 1016.2
20260506221631 7 251 0.0 0.0 0.00 0.03 0.00 86 1016.3
20260506221131 7 251 0.0 0.0 0.00 0.03 0.00 86 1016.3
20260506220631 7 251 0.0 0.0 0.00 0.03 0.00 86 1016.3
20260506220130 8 251 0.0 0.0 0.00 0.03 0.00 86 1016.3
20260506220050 8 251 0.0 0.0 0.00 0.03 0.00 86 1016.3
20260506215129 8 251 0.0 0.0 0.00 0.03 0.00 86 1016.3
20260506214631 8 252 0.0 0.0 0.00 0.03 0.00 86 1016.3
20260506214129 8 252 0.0 0.0 0.00 0.03 0.00 86 1016.3
20260506214052 8 252 0.0 0.0 0.00 0.03 0.00 87 1016.4
20260506213129 8 252 0.0 0.0 0.00 0.03 0.00 87 1016.2
20260506212630 8 252 0.0 0.0 0.00 0.03 0.00 87 1016.3
20260506212554 8 252 0.0 0.0 0.00 0.03 0.00 87 1016.2
20260506211630 8 252 0.0 0.0 0.00 0.03 0.00 87 1016.2
20260506211129 8 252 0.0 0.0 0.00 0.03 0.00 87 1016.2
20260506211100 8 276 0.0 0.0 0.00 0.03 0.00 87 1016.2
20260506210128 9 276 0.0 0.0 0.00 0.03 0.00 87 1016.2
20260506205628 9 276 0.0 0.0 0.00 0.03 0.03 87 1016.2
20260506205131 9 275 0.0 0.0 0.00 0.03 0.03 87 1016.2
20260506204629 9 275 0.0 0.0 0.00 0.03 0.03 87 1016.2
20260506204129 9 226 0.0 0.0 0.00 0.03 0.03 87 1016.2
20260506203628 9 192 0.0 0.0 0.00 0.03 0.03 87 1016.2
20260506203127 10 192 0.0 0.0 0.00 0.03 0.03 87 1016.2
20260506202628 10 190 0.0 0.0 0.00 0.03 0.03 87 1016.2
20260506202127 10 192 0.0 0.0 0.00 0.03 0.03 87 1016.1
20260506201628 10 286 0.0 0.0 0.00 0.03 0.03 87 1016.1
20260506201128 10 251 0.0 0.0 0.00 0.03 0.03 87 1016.1
20260506200630 10 251 0.0 0.0 0.00 0.03 0.03 87 1016.1
20260506200127 10 251 0.0 0.0 0.00 0.03 0.03 87 1016.1
20260506195627 10 251 0.0 0.0 0.00 0.03 0.03 87 1016.1
20260506195126 10 214 0.0 0.0 0.00 0.03 0.03 87 1016.1
20260506194627 10 214 0.0 0.0 0.00 0.03 0.03 87 1016.1
20260506194126 11 288 0.0 0.0 0.00 0.03 0.03 86 1016.0
20260506194058 11 140 0.0 0.0 0.00 0.03 0.03 86 1016.0
20260506193130 11 141 0.0 0.0 0.00 0.03 0.03 86 1016.0
20260506192626 11 141 0.0 0.0 0.00 0.03 0.03 85 1016.0
20260506192129 12 137 0.0 0.0 0.00 0.03 0.03 84 1016.0
20260506191625 12 261 0.0 0.0 0.00 0.03 0.03 84 1015.8
20260506191126 12 274 0.0 0.0 0.00 0.03 0.03 84 1015.9
20260506190626 12 274 0.0 0.0 0.00 0.03 0.03 84 1015.9
20260506190125 12 268 0.0 0.0 0.00 0.03 0.03 85 1015.7
20260506185627 12 197 0.0 0.0 0.00 0.03 0.03 85 1015.7
20260506185125 12 149 0.0 0.0 0.00 0.03 0.03 84 1015.5
20260506184626 12 148 0.0 0.0 0.00 0.03 0.03 84 1015.5
20260506184455 12 149 0.0 0.0 0.00 0.03 0.03 82 1015.4
20260506184306 12 149 0.0 0.0 0.00 0.03 0.03 83 1015.5
20260506183815 12 149 0.0 0.0 0.00 0.03 0.03 82 1015.4
20260506182625 13 149 0.0 0.0 0.00 0.03 0.03 81 1015.3
20260506182125 13 149 0.0 0.0 0.00 0.03 0.03 81 1015.3
20260506181624 13 102 0.0 0.0 0.00 0.03 0.03 80 1015.1
20260506181125 13 102 0.0 0.0 0.00 0.03 0.03 78 1015.0
20260506180626 14 102 0.0 0.0 0.00 0.03 0.03 76 1014.9
20260506180127 14 102 0.0 0.0 0.00 0.03 0.03 75 1014.8
20260506175624 14 102 0.0 0.0 0.00 0.03 0.03 74 1014.8
20260506175127 15 102 0.0 0.0 0.00 0.03 0.03 74 1014.5
20260506174624 15 102 0.0 0.0 0.00 0.03 0.03 72 1014.5
20260506174123 15 102 0.0 0.0 0.00 0.03 0.03 71 1014.4
20260506174042 16 102 0.0 0.0 0.00 0.03 0.03 68 1014.4
20260506173124 16 102 0.0 0.0 0.00 0.03 0.03 68 1014.3
20260506172625 16 102 0.0 0.0 0.00 0.03 0.03 67 1014.3
20260506172123 17 102 0.0 0.0 0.00 0.03 0.03 66 1014.3
20260506171626 17 102 0.0 0.0 0.00 0.03 0.03 65 1014.2
20260506171123 17 102 0.0 0.0 0.00 0.03 0.03 64 1014.2
20260506171017 18 102 0.0 0.0 0.00 0.03 0.03 62 1014.1
20260506170819 18 102 0.0 0.0 0.00 0.03 0.03 63 1014.2
20260506170038 19 102 0.0 0.0 0.00 0.03 0.03 61 1014.0
20260506165124 19 102 0.0 0.0 0.00 0.03 0.03 60 1014.1
20260506164622 20 111 0.0 0.0 0.00 0.03 0.03 61 1014.0
20260506164122 20 124 0.0 0.0 0.00 0.03 0.03 58 1013.9
20260506164021 21 134 0.0 4.8 0.00 0.03 0.03 58 1013.9
20260506163815 20 147 0.0 4.8 0.00 0.03 0.03 60 1013.9
20260506162623 21 164 0.0 6.4 0.00 0.03 0.03 58 1013.9
20260506162123 21 128 0.0 6.4 0.00 0.03 0.03 55 1013.7
20260506161622 21 131 0.0 0.0 0.00 0.03 0.03 55 1013.7
20260506161123 21 134 0.0 3.2 0.00 0.03 0.03 52 1013.7
20260506160622 22 123 0.0 3.2 0.00 0.03 0.03 52 1013.6
20260506160122 22 140 0.0 1.6 0.00 0.03 0.03 51 1013.6
20260506155624 22 224 0.0 8.0 0.00 0.03 0.03 51 1013.5
20260506155555 22 52 1.6 9.7 0.00 0.03 0.03 51 1013.5
20260506154623 22 224 0.0 9.7 0.00 0.03 0.03 51 1013.5
20260506154119 22 121 1.6 8.0 0.00 0.03 0.03 50 1013.7
20260506153618 22 94 0.0 8.0 0.00 0.03 0.03 50 1013.7
20260506153120 23 135 3.2 8.0 0.00 0.03 0.03 49 1013.8